TimeCDT,TemperatureF,Dew PointF,Humidity,Sea Level PressureIn,VisibilityMPH,Wind Direction,Wind SpeedMPH,Gust SpeedMPH,PrecipitationIn,Events,Conditions,WindDirDegrees,DateUTC
12:54 AM,54.0,46.0,75,30.26,10.0,WNW,6.9,-,N/A,,Clear,290,2013-09-12 05:54:00
1:54 AM,54.0,45.0,72,30.28,10.0,West,6.9,-,N/A,,Clear,280,2013-09-12 06:54:00
2:54 AM,51.1,45.0,80,30.29,10.0,WNW,5.8,-,N/A,,Clear,290,2013-09-12 07:54:00
3:54 AM,48.9,46.0,90,30.30,10.0,WSW,5.8,-,N/A,,Clear,250,2013-09-12 08:54:00
4:54 AM,48.9,44.1,83,30.30,10.0,West,5.8,-,N/A,,Clear,280,2013-09-12 09:54:00
5:54 AM,46.9,44.1,90,30.31,10.0,WSW,4.6,-,N/A,,Clear,240,2013-09-12 10:54:00
6:54 AM,46.9,43.0,86,30.32,10.0,West,6.9,-,N/A,,Clear,280,2013-09-12 11:54:00
7:54 AM,48.9,45.0,86,30.35,10.0,WNW,5.8,-,N/A,,Clear,300,2013-09-12 12:54:00
8:54 AM,53.1,46.0,77,30.35,10.0,WNW,5.8,-,N/A,,Clear,300,2013-09-12 13:54:00
9:54 AM,59.0,48.9,69,30.36,10.0,Calm,Calm,-,N/A,,Clear,0,2013-09-12 14:54:00
10:54 AM,61.0,48.9,64,30.36,10.0,Calm,Calm,-,N/A,,Clear,0,2013-09-12 15:54:00
11:54 AM,64.0,48.0,56,30.36,10.0,SW,3.5,-,N/A,,Clear,230,2013-09-12 16:54:00
12:54 PM,66.0,46.0,48,30.35,10.0,Calm,Calm,-,N/A,,Clear,0,2013-09-12 17:54:00
1:54 PM,69.1,46.0,44,30.32,10.0,Calm,Calm,-,N/A,,Clear,0,2013-09-12 18:54:00
2:54 PM,69.1,44.1,40,30.31,7.0,Calm,Calm,-,N/A,,Clear,0,2013-09-12 19:54:00
3:54 PM,70.0,45.0,41,30.29,10.0,Calm,Calm,-,N/A,,Clear,0,2013-09-12 20:54:00
4:54 PM,72.0,45.0,38,30.27,8.0,Variable,3.5,-,N/A,,Clear,0,2013-09-12 21:54:00
5:54 PM,71.1,44.1,38,30.25,9.0,Calm,Calm,-,N/A,,Clear,0,2013-09-12 22:54:00
6:54 PM,69.1,46.9,45,30.25,7.0,ENE,3.5,-,N/A,,Clear,70,2013-09-12 23:54:00
7:54 PM,64.9,46.9,52,30.24,10.0,ESE,4.6,-,N/A,,Clear,120,2013-09-13 00:54:00
8:54 PM,60.1,46.9,62,30.24,10.0,ESE,5.8,-,N/A,,Clear,120,2013-09-13 01:54:00
9:54 PM,57.0,48.0,72,30.24,10.0,SE,6.9,-,N/A,,Clear,130,2013-09-13 02:54:00
10:54 PM,55.0,48.9,80,30.22,10.0,SE,4.6,-,N/A,,Clear,140,2013-09-13 03:54:00
11:54 PM,53.1,46.9,80,30.21,10.0,SE,5.8,-,N/A,,Clear,130,2013-09-13 04:54:00